Orbital Elements at Epoch 2459200.5 (2020-Dec-17.0) TDB
Reference: JPL 21 (heliocentric ecliptic J2000)
Element | Value | Uncertainty (1-sigma) | Units |
e | .06940634317618415 | 4.368e-08 | |
a | 2.34457433865301 | 1.0046e-08 | au |
q | 2.181846007502385 | 1.0408e-07 | au |
i | 1.193637968029273 | 5.0451e-06 | deg |
node | 193.2904696730558 | 0.00020348 | deg |
peri | 290.0122599514947 | 0.00020632 | deg |
M | 344.8036334544778 | 3.3438e-05 | deg |
tp | 2459255.851793520741 (2021-Feb-10.35179352) | 0.00012184 | TDB |
period | 1311.276982413818 3.59 | 8.4279e-06 2.307e-08 | d yr |
n | .2745415383844431 | 1.7646e-09 | deg/d |
Q | 2.507302669803636 | 1.0743e-08 | au |
|
| | Orbit Determination Parameters
Additional Information
|